Regional Weather Roundup
Issued by NWS

Home | Current Version | Previous Version | Text Only | Print | Product List | Glossary Off
Versions: 1 2 3 4 5 6 7 8 9 10 11 12 13 14 15 16 17 18 19 20 21 22 23 24 25 26 27 28 29 30 31 32 33 34 35 36 37 38 39 40 41 42 43 44 45 46 47 48 49 50

040
ASUS43 KBIS 272310
RWRND

NORTH DAKOTA REGIONAL WEATHER ROUNDUP
NATIONAL WEATHER SERVICE BISMARCK ND
600 PM CDT SAT MAY 27 2017

NOTE: "FAIR" INDICATES FEW OR NO CLOUDS BELOW 12,000 FEET WITH NO
SIGNIFICANT WEATHER AND/OR OBSTRUCTIONS TO VISIBILITY.


NDZ001>003-009>011-017-280000-
NORTHWEST NORTH DAKOTA

CITY           SKY/WX    TMP DP  RH WIND       PRES   REMARKS
WILLISTON      FAIR      73  42  32 VRB7      29.83F
MINOT          FAIR      62  49  62 W13       29.80F
MINOT AFB      MOSUNNY   60  50  69 NW15      29.80S
$$

NDZ018>021-031>035-040>046-280000-
SOUTHWEST NORTH DAKOTA

CITY           SKY/WX    TMP DP  RH WIND       PRES   REMARKS
BISMARCK       PTSUNNY   75  36  24 NW20G26   29.79S
DICKINSON      PTSUNNY   66  39  37 NW15G26   29.87R
GARRISON         N/A     55  47  74 VRB3G17   29.83F
HETTINGER ARPT PTSUNNY   68  40  35 W17G30    29.90F
$$

NDZ004>008-012>016-024-026-027-054-280000-
NORTHEAST NORTH DAKOTA

CITY           SKY/WX    TMP DP  RH WIND       PRES   REMARKS
GRAND FORKS    LGT RAIN  68  46  45 W8        29.72R
GRND FRKS AFB  PTSUNNY   72  41  33 W6        29.72R
DEVILS LAKE    LGT RAIN  68  40  35 W15       29.72F
$$

NDZ022-023-025-028>030-036>039-047>053-280000-
SOUTHEAST NORTH DAKOTA

CITY           SKY/WX    TMP DP  RH WIND       PRES   REMARKS
FARGO          MOSUNNY   77  40  26 W15       29.72F
JAMESTOWN      FAIR      74  36  25 W18G24    29.74F
$$





USA.gov is the U.S. government's official web portal to all federal, state and local government web resources and services.